contact:dominique.lefevre@mio.osupytheas.fr, maurice.libes@osupytheas.fr, didier.mallarino@osupytheas.fr
Project:EMSO http://www.emso-fr.org/EMSO-France
Depth: 2436.0 m
Title:EMSO Ligure Ouest : Data MII capteur AQUADOPP
Date,Latitude,Longitude,X_East,Y_North,Z_Up,Amplitude_X,Amplitude_Y,Amplitude_Z,Batterie,SoundSpeed,Heading,Pitch,Roll,Pressure,TIS,Speed,Direction
, degrees North, degrees East, m.s-1, m.s-1,m.s-1, 1, 1, 1, Volt, m.s-1, degree, degree, degree, dbar, degree_C, m.s-1, degree
2022-01-16T00:04:03,42.805,6.029,0.064,-0.045,-0.022,102.0,103.0,101.0,13.4,1505.2,328.4,-0.8,1.8,2470.623,13.28,0.078,125.1
2022-01-16T00:07:03,42.805,6.029,0.071,-0.022,-0.009,102.0,105.0,101.0,13.4,1505.2,327.3,-0.7,1.8,2470.582,13.28,0.074,107.2
2022-01-16T00:10:03,42.805,6.029,0.055,-0.011,0.03,103.0,105.0,101.0,13.4,1505.2,329.0,-0.8,1.8,2470.552,13.28,0.056,101.3
2022-01-16T00:13:03,42.805,6.029,0.033,-0.011,-0.003,102.0,103.0,101.0,13.4,1505.2,327.5,-0.7,1.8,2470.564,13.28,0.034,108.4
2022-01-16T00:16:03,42.805,6.029,0.081,-0.027,0.026,102.0,103.0,101.0,13.4,1505.2,329.3,-0.8,1.8,2470.557,13.28,0.085,108.4
2022-01-16T00:19:03,42.805,6.029,0.055,-0.047,-0.041,102.0,105.0,101.0,13.4,1505.2,330.6,-0.8,1.8,2470.541,13.28,0.072,130.5
2022-01-16T00:22:03,42.805,6.029,0.085,-0.033,0.022,101.0,103.0,101.0,13.4,1505.2,328.2,-0.7,1.8,2470.567,13.28,0.091,111.2
2022-01-16T00:25:03,42.805,6.029,0.028,-0.015,-0.007,101.0,103.0,102.0,13.4,1505.2,330.7,-0.8,1.8,2470.53,13.28,0.031,118.2
2022-01-16T00:28:03,42.805,6.029,0.065,-0.003,-0.002,102.0,103.0,102.0,13.4,1505.2,325.8,-0.7,1.8,2470.585,13.28,0.065,92.6
2022-01-16T00:31:03,42.805,6.029,0.064,-0.002,0.037,103.0,105.0,100.0,13.3,1505.2,325.2,-0.7,1.8,2470.549,13.28,0.064,91.8
2022-01-16T00:34:03,42.805,6.029,0.055,-0.01,0.018,103.0,104.0,101.0,13.4,1505.2,327.1,-0.8,1.8,2470.534,13.28,0.055,100.3
2022-01-16T00:37:03,42.805,6.029,0.071,-0.011,0.022,102.0,104.0,101.0,13.4,1505.2,330.9,-0.8,1.8,2470.567,13.28,0.071,98.8
2022-01-16T00:40:03,42.805,6.029,0.05,-0.011,0.012,102.0,103.0,101.0,13.4,1505.2,326.3,-0.7,1.8,2470.573,13.28,0.051,102.4
2022-01-16T00:43:03,42.805,6.029,0.053,-0.005,0.039,102.0,102.0,101.0,13.4,1505.2,330.5,-0.8,1.8,2470.553,13.28,0.053,95.4
2022-01-16T00:46:03,42.805,6.029,0.074,-0.027,0.012,103.0,102.0,101.0,13.3,1505.2,324.2,-0.8,1.8,2470.576,13.28,0.078,110.0
2022-01-16T00:49:03,42.805,6.029,0.068,-0.035,-0.01,102.0,102.0,100.0,13.4,1505.2,327.6,-0.8,1.8,2470.555,13.28,0.076,117.2
2022-01-16T00:52:03,42.805,6.029,0.057,-0.018,0.003,103.0,102.0,100.0,13.3,1505.2,329.1,-0.7,1.8,2470.537,13.28,0.059,107.5
2022-01-16T00:55:03,42.805,6.029,0.07,-0.008,0.029,103.0,104.0,100.0,13.4,1505.2,331.5,-0.8,1.8,2470.564,13.28,0.07,96.5
2022-01-16T00:58:03,42.805,6.029,0.025,-0.002,-0.016,103.0,103.0,101.0,13.3,1505.2,330.4,-0.7,1.8,2470.573,13.28,0.025,94.6
2022-01-16T01:04:03,42.805,6.029,0.052,-0.023,0.037,105.0,105.0,102.0,13.3,1505.2,328.1,-0.8,1.8,2470.6,13.28,0.056,113.9
2022-01-16T01:07:03,42.805,6.029,0.041,-0.013,-0.011,103.0,103.0,102.0,13.4,1505.2,324.4,-0.8,1.8,2470.572,13.28,0.043,107.6
2022-01-16T01:10:02,42.805,6.029,0.06,-0.023,-0.036,102.0,102.0,102.0,13.4,1505.2,324.6,-0.8,1.8,2470.573,13.28,0.064,111.0
2022-01-16T01:13:03,42.805,6.029,0.075,-0.01,0.035,102.0,103.0,101.0,13.4,1505.2,326.6,-0.8,1.8,2470.556,13.28,0.075,97.6
2022-01-16T01:16:03,42.805,6.029,0.063,-0.024,0.007,102.0,103.0,100.0,13.3,1505.2,330.3,-0.8,1.8,2470.596,13.28,0.067,110.9
2022-01-16T01:19:03,42.805,6.029,0.041,-0.023,-0.008,102.0,103.0,101.0,13.3,1505.2,324.3,-0.7,1.8,2470.567,13.28,0.047,119.3
2022-01-16T01:22:03,42.805,6.029,0.086,-0.002,0.021,103.0,102.0,101.0,13.3,1505.2,326.8,-0.7,1.8,2470.575,13.28,0.086,91.3
2022-01-16T01:25:03,42.805,6.029,0.067,-0.021,-0.002,102.0,101.0,101.0,13.3,1505.2,331.0,-0.8,1.8,2470.525,13.28,0.07,107.4
2022-01-16T01:28:03,42.805,6.029,0.063,-0.027,0.004,102.0,103.0,100.0,13.4,1505.2,326.3,-0.7,1.8,2470.576,13.28,0.068,113.2
2022-01-16T01:31:03,42.805,6.029,0.069,-0.008,-0.011,103.0,102.0,101.0,13.4,1505.2,330.4,-0.8,1.8,2470.582,13.28,0.069,96.6
2022-01-16T01:34:03,42.805,6.029,0.055,-0.004,-0.014,102.0,103.0,101.0,13.4,1505.2,330.4,-0.8,1.8,2470.58,13.28,0.055,94.2
2022-01-16T01:37:03,42.805,6.029,0.068,-0.032,-0.043,103.0,103.0,101.0,13.4,1505.2,324.8,-0.7,1.8,2470.58,13.28,0.075,115.2
2022-01-16T01:40:03,42.805,6.029,0.072,-0.013,0.004,102.0,102.0,101.0,13.4,1505.2,324.1,-0.8,1.8,2470.6,13.28,0.073,100.2
2022-01-16T01:43:03,42.805,6.029,0.056,-0.011,0.024,103.0,103.0,101.0,13.4,1505.2,329.1,-0.8,1.8,2470.586,13.28,0.057,101.1
2022-01-16T01:46:03,42.805,6.029,0.045,-0.024,0.004,102.0,102.0,101.0,13.4,1505.2,326.7,-0.8,1.8,2470.563,13.28,0.051,118.1
2022-01-16T01:49:03,42.805,6.029,0.042,-0.015,-0.011,103.0,103.0,101.0,13.4,1505.2,327.4,-0.7,1.8,2470.544,13.28,0.044,109.6
2022-01-16T01:52:03,42.805,6.029,0.049,-0.023,-0.032,102.0,103.0,101.0,13.4,1505.2,324.5,-0.8,1.9,2470.554,13.28,0.054,115.1
2022-01-16T01:55:03,42.805,6.029,0.07,-0.03,0.008,103.0,102.0,101.0,13.4,1505.2,326.7,-0.8,1.8,2470.547,13.28,0.076,113.2
2022-01-16T01:58:03,42.805,6.029,0.054,-0.005,-0.01,102.0,102.0,101.0,13.3,1505.2,327.1,-0.8,1.8,2470.533,13.28,0.054,95.3
2022-01-16T02:04:03,42.805,6.029,0.053,-0.028,-0.004,102.0,102.0,101.0,13.4,1505.2,329.1,-0.8,1.8,2470.589,13.28,0.059,117.9
2022-01-16T02:07:03,42.805,6.029,0.083,-0.04,-0.013,102.0,101.0,102.0,13.4,1505.2,327.2,-0.7,1.8,2470.549,13.28,0.092,115.7
2022-01-16T02:10:03,42.805,6.029,0.049,-0.016,0.009,103.0,105.0,100.0,13.4,1505.2,326.2,-0.8,1.8,2470.596,13.28,0.051,108.1
2022-01-16T02:13:03,42.805,6.029,0.047,-0.015,-0.004,105.0,101.0,101.0,13.3,1505.2,329.9,-0.7,1.8,2470.547,13.28,0.049,107.7
2022-01-16T02:16:03,42.805,6.029,0.06,-0.007,0.013,102.0,102.0,101.0,13.4,1505.2,329.9,-0.7,1.8,2470.552,13.28,0.06,96.7
2022-01-16T02:19:03,42.805,6.029,0.064,-0.025,-0.005,102.0,102.0,101.0,13.4,1505.2,328.7,-0.7,1.8,2470.588,13.28,0.068,111.3
2022-01-16T02:22:03,42.805,6.029,0.098,-0.03,-0.014,102.0,102.0,100.0,13.4,1505.2,330.5,-0.8,1.8,2470.562,13.28,0.102,107.0
2022-01-16T02:25:03,42.805,6.029,0.065,-0.032,-0.021,104.0,100.0,101.0,13.4,1505.2,331.9,-0.8,1.8,2470.571,13.28,0.072,116.2
2022-01-16T02:28:03,42.805,6.029,0.062,-0.023,0.002,103.0,102.0,101.0,13.4,1505.2,330.8,-0.7,1.8,2470.552,13.28,0.066,110.3
2022-01-16T02:31:03,42.805,6.029,0.031,-0.029,0.017,103.0,103.0,101.0,13.3,1505.2,330.2,-0.8,1.8,2470.533,13.28,0.042,133.1
2022-01-16T02:34:03,42.805,6.029,0.031,0.007,0.008,102.0,103.0,101.0,13.4,1505.2,326.3,-0.8,1.8,2470.574,13.28,0.031,77.3
2022-01-16T02:37:03,42.805,6.029,0.056,-0.008,-0.011,103.0,101.0,101.0,13.4,1505.2,330.9,-0.8,1.8,2470.53,13.28,0.056,98.1
2022-01-16T02:40:03,42.805,6.029,0.057,-0.023,-0.017,103.0,103.0,101.0,13.4,1505.2,324.8,-0.7,1.8,2470.567,13.28,0.061,112.0
2022-01-16T02:43:03,42.805,6.029,0.066,-0.009,0.002,101.0,101.0,101.0,13.4,1505.2,328.7,-0.7,1.8,2470.55,13.28,0.066,97.8
2022-01-16T02:46:03,42.805,6.029,0.089,-0.024,-0.023,103.0,102.0,100.0,13.4,1505.2,325.9,-0.8,1.8,2470.586,13.28,0.092,105.1
2022-01-16T02:49:03,42.805,6.029,0.058,-0.006,0.012,102.0,102.0,100.0,13.4,1505.2,327.7,-0.8,1.8,2470.603,13.28,0.058,95.9
2022-01-16T02:52:03,42.805,6.029,0.056,-0.006,0.011,103.0,103.0,101.0,13.3,1505.2,325.6,-0.8,1.8,2470.624,13.28,0.056,96.1
2022-01-16T02:55:03,42.805,6.029,0.053,-0.026,-0.028,102.0,102.0,101.0,13.4,1505.2,326.1,-0.7,1.8,2470.585,13.28,0.059,116.1
2022-01-16T02:58:03,42.805,6.029,0.056,-0.022,0.008,103.0,102.0,100.0,13.3,1505.2,327.9,-0.7,1.8,2470.594,13.28,0.06,111.4
2022-01-16T03:04:03,42.805,6.029,0.023,-0.018,-0.002,102.0,102.0,101.0,13.4,1505.2,323.5,-0.7,1.8,2470.657,13.28,0.029,128.0
2022-01-16T03:07:03,42.805,6.029,0.046,-0.026,0.011,103.0,103.0,101.0,13.4,1505.2,327.2,-0.8,1.8,2470.636,13.28,0.052,119.5
2022-01-16T03:10:03,42.805,6.029,0.041,-0.025,0.005,101.0,103.0,101.0,13.3,1505.2,326.5,-0.8,1.9,2470.606,13.28,0.048,121.4
2022-01-16T03:13:03,42.805,6.029,0.053,-0.011,0.031,102.0,103.0,101.0,13.4,1505.2,328.7,-0.8,1.8,2470.644,13.28,0.054,101.7
2022-01-16T03:16:03,42.805,6.029,0.069,-0.022,0.008,102.0,103.0,101.0,13.4,1505.2,328.0,-0.8,1.8,2470.575,13.28,0.072,107.7
2022-01-16T03:19:03,42.805,6.029,0.04,-0.045,-0.004,102.0,102.0,101.0,13.4,1505.2,326.7,-0.8,1.8,2470.581,13.28,0.06,138.4
2022-01-16T03:22:03,42.805,6.029,0.029,-0.041,-0.009,102.0,104.0,101.0,13.4,1505.2,329.3,-0.7,1.8,2470.643,13.28,0.05,144.7
2022-01-16T03:25:03,42.805,6.029,0.047,-0.009,-0.003,103.0,102.0,101.0,13.4,1505.2,329.7,-0.8,1.8,2470.621,13.28,0.047,100.8
2022-01-16T03:28:03,42.805,6.029,0.061,-0.022,0.006,103.0,101.0,100.0,13.3,1505.2,324.4,-0.7,1.8,2470.659,13.28,0.064,109.8
2022-01-16T03:31:03,42.805,6.029,0.029,-0.034,0.015,102.0,102.0,100.0,13.3,1505.2,329.9,-0.8,1.9,2470.659,13.28,0.044,139.5
2022-01-16T03:34:03,42.805,6.029,0.048,-0.04,-0.043,102.0,103.0,100.0,13.4,1505.2,324.6,-0.8,1.8,2470.645,13.28,0.062,129.8
2022-01-16T03:37:03,42.805,6.029,0.03,-0.046,-0.01,102.0,103.0,101.0,13.4,1505.2,330.1,-0.8,1.8,2470.673,13.28,0.054,146.9
2022-01-16T03:40:03,42.805,6.029,0.044,-0.008,0.021,103.0,101.0,100.0,13.3,1505.2,329.7,-0.8,1.8,2470.605,13.28,0.044,100.3
2022-01-16T03:43:03,42.805,6.029,0.028,-0.008,0.034,103.0,101.0,101.0,13.4,1505.2,325.9,-0.7,1.8,2470.606,13.28,0.029,105.9
2022-01-16T03:46:03,42.805,6.029,0.059,-0.025,0.018,102.0,101.0,101.0,13.4,1505.2,329.5,-0.8,1.8,2470.621,13.28,0.064,113.0
2022-01-16T03:49:03,42.805,6.029,0.051,-0.036,-0.023,102.0,101.0,100.0,13.4,1505.2,327.3,-0.8,1.8,2470.623,13.28,0.062,125.2
2022-01-16T03:52:03,42.805,6.029,0.029,-0.033,-0.003,102.0,101.0,100.0,13.4,1505.2,325.8,-0.8,1.8,2470.582,13.28,0.043,138.7
2022-01-16T03:55:03,42.805,6.029,0.026,-0.025,0.0,102.0,102.0,101.0,13.3,1505.2,328.4,-0.8,1.8,2470.628,13.28,0.036,133.9
2022-01-16T03:58:03,42.805,6.029,0.046,-0.035,-0.005,102.0,103.0,101.0,13.3,1505.2,328.3,-0.8,1.8,2470.625,13.28,0.057,127.3
2022-01-16T04:04:03,42.805,6.029,0.051,-0.035,0.027,104.0,100.0,101.0,13.4,1505.2,328.5,-0.8,1.8,2470.69,13.28,0.061,124.5
2022-01-16T04:07:03,42.805,6.029,0.038,-0.026,-0.011,103.0,101.0,100.0,13.4,1505.2,327.7,-0.8,1.9,2470.655,13.28,0.046,124.4
2022-01-16T04:10:03,42.805,6.029,0.024,-0.014,-0.012,102.0,101.0,100.0,13.3,1505.2,328.2,-0.7,1.8,2470.659,13.28,0.027,120.3
2022-01-16T04:13:03,42.805,6.029,0.063,-0.026,-0.011,102.0,101.0,100.0,13.4,1505.2,332.2,-0.8,1.8,2470.655,13.28,0.068,112.4
2022-01-16T04:16:03,42.805,6.029,0.053,-0.02,-0.002,102.0,100.0,101.0,13.3,1505.2,324.8,-0.8,1.8,2470.627,13.28,0.056,110.7
2022-01-16T04:19:03,42.805,6.029,0.034,-0.025,-0.015,101.0,103.0,101.0,13.4,1505.2,325.6,-0.8,1.8,2470.635,13.28,0.042,126.3
2022-01-16T04:22:03,42.805,6.029,0.027,-0.033,-0.029,101.0,101.0,101.0,13.4,1505.2,326.2,-0.8,1.9,2470.596,13.28,0.042,140.7
2022-01-16T04:25:03,42.805,6.029,0.035,-0.01,0.015,101.0,102.0,100.0,13.4,1505.2,323.5,-0.8,1.9,2470.618,13.28,0.036,105.9
2022-01-16T04:28:03,42.805,6.029,0.041,-0.021,-0.014,100.0,103.0,102.0,13.3,1505.2,328.4,-0.8,1.8,2470.604,13.28,0.046,117.1
2022-01-16T04:31:03,42.805,6.029,0.066,-0.058,-0.039,102.0,102.0,100.0,13.4,1505.2,330.5,-0.7,1.8,2470.548,13.28,0.087,131.3
2022-01-16T04:34:03,42.805,6.029,0.045,-0.036,0.001,102.0,100.0,102.0,13.3,1505.2,324.4,-0.8,1.8,2470.571,13.28,0.057,128.7
2022-01-16T04:37:03,42.805,6.029,0.036,-0.013,0.017,101.0,102.0,102.0,13.4,1505.2,325.5,-0.7,1.9,2470.542,13.28,0.038,109.9
2022-01-16T04:40:03,42.805,6.029,0.038,-0.014,0.006,101.0,101.0,101.0,13.4,1505.2,331.6,-0.7,1.8,2470.569,13.28,0.04,110.2
2022-01-16T04:43:03,42.805,6.029,0.053,-0.018,0.009,102.0,103.0,99.0,13.3,1505.2,330.9,-0.8,1.8,2470.503,13.28,0.055,108.8
2022-01-16T04:46:03,42.805,6.029,0.037,-0.017,0.008,102.0,101.0,100.0,13.4,1505.2,331.6,-0.8,1.8,2470.498,13.28,0.04,114.7
2022-01-16T04:49:03,42.805,6.029,0.037,-0.044,-0.016,101.0,101.0,101.0,13.4,1505.2,329.4,-0.8,1.8,2470.555,13.28,0.057,139.9
2022-01-16T04:52:03,42.805,6.029,0.032,-0.009,0.0,102.0,102.0,100.0,13.4,1505.2,329.0,-0.8,1.8,2470.842,13.28,0.033,105.7
2022-01-16T04:55:03,42.805,6.029,0.075,-0.029,0.032,103.0,103.0,99.0,13.4,1505.2,329.0,-0.8,1.8,2471.129,13.28,0.08,111.1
2022-01-16T04:58:03,42.805,6.029,0.048,-0.013,-0.011,101.0,102.0,100.0,13.3,1505.2,325.5,-0.7,1.8,2471.072,13.28,0.049,105.2
2022-01-16T05:04:03,42.805,6.029,0.037,-0.022,0.023,101.0,103.0,100.0,13.4,1505.2,326.6,-0.7,1.9,2471.819,13.28,0.043,120.7
2022-01-16T05:07:03,42.805,6.029,0.044,-0.005,0.048,101.0,101.0,101.0,13.3,1505.2,327.3,-0.8,1.8,2472.394,13.28,0.044,96.5
2022-01-16T05:10:03,42.805,6.029,0.038,-0.038,-0.003,101.0,102.0,100.0,13.3,1505.2,324.8,-0.8,1.8,2472.696,13.28,0.053,135.0
2022-01-16T05:13:03,42.805,6.029,0.042,-0.024,0.005,102.0,100.0,101.0,13.4,1505.2,330.7,-0.8,1.9,2472.393,13.28,0.048,119.7
2022-01-16T05:16:03,42.805,6.029,0.041,-0.032,-0.002,102.0,100.0,101.0,13.3,1505.2,325.2,-0.7,1.8,2471.924,13.28,0.052,128.0
2022-01-16T05:19:03,42.805,6.029,0.054,-0.025,-0.006,102.0,102.0,100.0,13.3,1505.2,324.6,-0.8,1.8,2472.012,13.28,0.059,114.8
2022-01-16T05:22:03,42.805,6.029,0.03,-0.011,0.029,102.0,101.0,101.0,13.4,1505.2,329.1,-0.8,1.8,2472.212,13.28,0.031,110.1
2022-01-16T05:25:03,42.805,6.029,0.034,-0.034,-0.002,102.0,102.0,100.0,13.4,1505.2,329.2,-0.8,1.8,2472.364,13.28,0.048,135.0
2022-01-16T05:28:03,42.805,6.029,0.024,-0.019,-0.031,101.0,102.0,101.0,13.4,1505.2,327.4,-0.8,1.8,2472.415,13.28,0.03,128.4
2022-01-16T05:31:03,42.805,6.029,0.034,-0.036,-0.014,102.0,100.0,100.0,13.4,1505.2,326.2,-0.8,1.8,2472.468,13.28,0.049,136.6
2022-01-16T05:34:03,42.805,6.029,0.047,-0.017,0.017,102.0,101.0,101.0,13.3,1505.2,329.5,-0.7,1.8,2472.826,13.28,0.049,109.9
2022-01-16T05:37:03,42.805,6.029,0.045,-0.032,0.02,101.0,101.0,101.0,13.4,1505.2,331.2,-0.8,1.8,2473.188,13.28,0.055,125.4
2022-01-16T05:40:03,42.805,6.029,0.045,-0.016,-0.002,103.0,101.0,100.0,13.3,1505.2,328.6,-0.7,1.8,2473.323,13.28,0.047,109.6
2022-01-16T05:43:03,42.805,6.029,0.007,-0.014,0.007,101.0,102.0,101.0,13.3,1505.2,329.7,-0.8,1.8,2473.33,13.28,0.015,153.4
2022-01-16T05:46:03,42.805,6.029,0.004,-0.01,-0.016,101.0,103.0,101.0,13.4,1505.2,332.0,-0.7,1.8,2473.226,13.28,0.01,158.2
2022-01-16T05:49:03,42.805,6.029,0.043,-0.027,-0.016,103.0,103.0,100.0,13.3,1505.2,324.2,-0.8,1.9,2473.118,13.28,0.05,122.1
2022-01-16T05:52:03,42.805,6.029,0.011,-0.016,0.012,102.0,101.0,101.0,13.4,1505.2,328.8,-0.7,1.8,2473.032,13.28,0.019,145.5
2022-01-16T05:55:03,42.805,6.029,0.02,-0.025,0.015,103.0,100.0,101.0,13.4,1505.2,329.7,-0.8,1.8,2472.949,13.28,0.032,141.3
2022-01-16T05:58:03,42.805,6.029,0.023,-0.013,0.007,102.0,102.0,102.0,13.4,1505.2,324.4,-0.7,1.8,2472.828,13.28,0.026,119.5
2022-01-16T06:04:03,42.805,6.029,0.026,-0.002,0.011,100.0,105.0,101.0,13.4,1505.2,325.9,-0.8,1.8,2472.687,13.28,0.026,94.4
2022-01-16T06:07:03,42.805,6.029,0.007,-0.03,-0.016,102.0,102.0,101.0,13.3,1505.2,330.4,-0.8,1.8,2472.627,13.28,0.03,166.9
2022-01-16T06:10:03,42.805,6.029,0.065,-0.036,0.023,101.0,104.0,100.0,13.3,1505.2,326.5,-0.8,1.8,2472.652,13.28,0.074,119.0
2022-01-16T06:13:03,42.805,6.029,0.032,-0.026,0.015,103.0,102.0,101.0,13.3,1505.2,329.5,-0.7,1.8,2472.559,13.28,0.041,129.1
2022-01-16T06:16:03,42.805,6.029,0.027,-0.019,0.01,102.0,104.0,100.0,13.4,1505.2,331.3,-0.8,1.8,2472.471,13.28,0.033,125.1
2022-01-16T06:19:03,42.805,6.029,0.024,-0.008,-0.011,102.0,104.0,101.0,13.3,1505.2,324.9,-0.8,1.8,2472.299,13.28,0.025,108.4
2022-01-16T06:22:03,42.805,6.029,0.063,-0.024,0.014,100.0,102.0,102.0,13.4,1505.2,324.4,-0.8,1.8,2472.05,13.28,0.067,110.9
2022-01-16T06:25:03,42.805,6.029,0.026,-0.003,0.034,102.0,103.0,100.0,13.3,1505.2,329.0,-0.8,1.8,2472.056,13.28,0.026,96.6
2022-01-16T06:28:03,42.805,6.029,0.046,-0.014,0.017,102.0,101.0,101.0,13.3,1505.2,328.0,-0.7,1.8,2472.004,13.28,0.048,106.9
2022-01-16T06:31:03,42.805,6.029,0.034,-0.013,0.028,103.0,102.0,101.0,13.3,1505.2,327.3,-0.7,1.9,2471.854,13.28,0.036,110.9
2022-01-16T06:34:03,42.805,6.029,0.02,-0.02,0.001,100.0,103.0,102.0,13.4,1505.2,328.2,-0.8,1.8,2471.605,13.28,0.028,135.0
2022-01-16T06:37:03,42.805,6.029,0.019,-0.031,-0.007,103.0,102.0,102.0,13.3,1505.2,328.8,-0.7,1.8,2471.438,13.28,0.036,148.5
2022-01-16T06:40:03,42.805,6.029,0.028,-0.031,-0.024,102.0,101.0,102.0,13.4,1505.2,325.3,-0.8,1.8,2471.238,13.28,0.041,137.9
2022-01-16T06:43:03,42.805,6.029,0.063,-0.034,0.017,101.0,103.0,100.0,13.3,1505.2,326.2,-0.7,1.8,2471.138,13.28,0.071,118.4
2022-01-16T06:46:03,42.805,6.029,0.026,-0.016,0.014,103.0,102.0,101.0,13.3,1505.2,325.6,-0.7,1.8,2470.996,13.28,0.03,121.6
2022-01-16T06:49:03,42.805,6.029,0.032,-0.018,0.025,101.0,101.0,101.0,13.4,1505.2,325.9,-0.7,1.8,2470.984,13.28,0.036,119.4
2022-01-16T06:52:03,42.805,6.029,0.007,-0.022,-0.001,102.0,102.0,101.0,13.3,1505.2,324.0,-0.8,1.8,2470.943,13.28,0.023,162.4
2022-01-16T06:55:03,42.805,6.029,0.043,-0.031,-0.004,103.0,102.0,102.0,13.4,1505.2,327.7,-0.7,1.8,2470.756,13.28,0.053,125.8
2022-01-16T06:58:03,42.805,6.029,0.031,-0.026,0.009,102.0,101.0,101.0,13.4,1505.2,326.7,-0.7,1.8,2470.832,13.28,0.04,130.0
2022-01-16T07:04:03,42.805,6.029,0.046,-0.026,-0.034,101.0,102.0,100.0,13.4,1505.2,329.0,-0.8,1.8,2470.653,13.28,0.052,119.5
2022-01-16T07:07:03,42.805,6.029,0.008,-0.023,0.005,102.0,103.0,101.0,13.3,1505.2,326.8,-0.7,1.8,2470.508,13.28,0.024,160.8
2022-01-16T07:10:03,42.805,6.029,0.024,-0.021,0.01,101.0,102.0,101.0,13.4,1505.2,325.0,-0.7,1.8,2470.543,13.28,0.031,131.2
2022-01-16T07:13:03,42.805,6.029,0.024,-0.007,0.041,101.0,104.0,101.0,13.4,1505.2,328.9,-0.8,1.8,2470.455,13.28,0.025,106.3
2022-01-16T07:16:03,42.805,6.029,0.041,-0.018,-0.007,102.0,101.0,100.0,13.4,1505.2,329.9,-0.8,1.8,2470.36,13.28,0.044,113.7
2022-01-16T07:19:03,42.805,6.029,0.038,-0.008,-0.013,99.0,103.0,101.0,13.4,1505.2,323.9,-0.7,1.9,2470.374,13.28,0.038,101.9
2022-01-16T07:22:03,42.805,6.029,0.017,-0.015,-0.002,101.0,103.0,100.0,13.4,1505.2,326.6,-0.7,1.8,2470.39,13.28,0.022,131.4
2022-01-16T07:25:03,42.805,6.029,0.037,-0.024,-0.01,103.0,104.0,99.0,13.3,1505.2,326.5,-0.8,1.8,2470.442,13.28,0.044,123.0
2022-01-16T07:28:03,42.805,6.029,0.004,-0.008,0.016,101.0,103.0,100.0,13.4,1505.2,330.2,-0.7,1.8,2470.422,13.28,0.008,153.4
2022-01-16T07:31:03,42.805,6.029,0.037,0.008,0.013,102.0,102.0,101.0,13.3,1505.2,325.3,-0.7,1.8,2470.438,13.28,0.037,77.8
2022-01-16T07:34:03,42.805,6.029,0.032,-0.008,-0.004,103.0,101.0,101.0,13.4,1505.2,324.3,-0.7,1.8,2470.416,13.28,0.032,104.0
2022-01-16T07:37:03,42.805,6.029,0.022,0.001,-0.003,103.0,103.0,101.0,13.4,1505.2,324.3,-0.7,1.9,2470.459,13.28,0.022,87.4
2022-01-16T07:40:03,42.805,6.029,0.031,-0.03,0.005,102.0,102.0,101.0,13.3,1505.2,327.2,-0.8,1.8,2470.462,13.28,0.043,134.1
2022-01-16T07:43:03,42.805,6.029,0.034,-0.013,0.0,102.0,102.0,100.0,13.4,1505.2,330.3,-0.8,1.8,2470.479,13.28,0.036,110.9
2022-01-16T07:46:03,42.805,6.029,0.048,-0.018,0.031,100.0,103.0,102.0,13.4,1505.2,327.1,-0.8,1.9,2470.501,13.28,0.051,110.6
2022-01-16T07:49:03,42.805,6.029,0.018,-0.028,-0.013,101.0,103.0,100.0,13.4,1505.2,329.6,-0.8,1.8,2470.58,13.28,0.033,147.3
2022-01-16T07:52:03,42.805,6.029,0.02,-0.016,0.004,103.0,103.0,100.0,13.4,1505.2,331.7,-0.8,1.8,2470.586,13.28,0.025,128.7
2022-01-16T07:55:03,42.805,6.029,0.028,-0.018,-0.018,102.0,103.0,101.0,13.4,1505.2,326.0,-0.8,1.8,2470.601,13.28,0.033,122.7
2022-01-16T07:58:03,42.805,6.029,0.036,0.0,-0.004,102.0,103.0,100.0,13.3,1505.2,329.3,-0.7,1.8,2470.593,13.28,0.036,90.0
2022-01-16T08:04:03,42.805,6.029,0.055,-0.021,0.009,103.0,100.0,101.0,13.3,1505.2,327.9,-0.7,1.8,2470.646,13.28,0.058,110.9
2022-01-16T08:07:03,42.805,6.029,0.027,-0.022,0.0,101.0,103.0,100.0,13.4,1505.2,325.8,-0.8,1.8,2470.635,13.28,0.034,129.2
2022-01-16T08:10:03,42.805,6.029,0.031,-0.011,0.019,101.0,105.0,100.0,13.4,1505.2,330.6,-0.8,1.8,2470.697,13.28,0.032,109.5
2022-01-16T08:13:03,42.805,6.029,0.035,-0.021,0.001,102.0,101.0,101.0,13.3,1505.2,325.2,-0.7,1.8,2470.705,13.28,0.04,121.0
2022-01-16T08:16:03,42.805,6.029,0.008,0.022,0.03,102.0,102.0,101.0,13.3,1505.2,325.5,-0.8,1.8,2470.676,13.28,0.023,20.0
2022-01-16T08:19:03,42.805,6.029,0.014,0.0,-0.011,101.0,104.0,101.0,13.4,1505.2,327.8,-0.8,1.8,2470.724,13.28,0.014,90.0
2022-01-16T08:22:03,42.805,6.029,0.017,0.0,0.006,102.0,102.0,100.0,13.4,1505.2,326.0,-0.8,1.8,2470.711,13.28,0.017,90.0
2022-01-16T08:25:03,42.805,6.029,0.029,0.0,0.043,102.0,102.0,100.0,13.3,1505.2,326.7,-0.7,1.8,2470.764,13.28,0.028,90.0
2022-01-16T08:28:03,42.805,6.029,0.003,-0.019,-0.023,102.0,103.0,100.0,13.4,1505.2,326.7,-0.8,1.8,2470.734,13.28,0.019,171.0
2022-01-16T08:31:03,42.805,6.029,0.016,-0.016,-0.002,102.0,103.0,100.0,13.4,1505.2,328.3,-0.8,1.8,2470.729,13.28,0.022,135.0
2022-01-16T08:34:03,42.805,6.029,0.03,-0.026,-0.01,102.0,102.0,101.0,13.3,1505.2,328.9,-0.8,1.8,2470.781,13.28,0.039,130.9
2022-01-16T08:37:03,42.805,6.029,0.021,-0.001,0.001,101.0,102.0,100.0,13.4,1505.2,330.6,-0.7,1.8,2470.775,13.28,0.021,92.7
2022-01-16T08:40:03,42.805,6.029,0.034,-0.008,-0.013,101.0,102.0,101.0,13.4,1505.2,326.6,-0.8,1.9,2470.785,13.28,0.034,103.2
2022-01-16T08:43:03,42.805,6.029,0.026,-0.016,0.037,102.0,102.0,101.0,13.3,1505.2,328.8,-0.8,1.8,2470.807,13.28,0.03,121.6
2022-01-16T08:46:03,42.805,6.029,0.008,-0.01,-0.008,102.0,102.0,101.0,13.3,1505.2,328.1,-0.8,1.8,2470.816,13.28,0.012,141.3
2022-01-16T08:49:03,42.805,6.029,0.014,-0.016,-0.004,102.0,101.0,100.0,13.4,1505.2,326.6,-0.8,1.8,2470.802,13.28,0.021,138.8
2022-01-16T08:52:03,42.805,6.029,0.009,-0.015,-0.032,100.0,104.0,100.0,13.3,1505.2,324.7,-0.8,1.8,2470.809,13.28,0.017,149.0
2022-01-16T08:55:03,42.805,6.029,0.003,-0.004,-0.029,101.0,104.0,101.0,13.4,1505.2,329.0,-0.8,1.8,2470.86,13.28,0.005,143.1
2022-01-16T08:58:03,42.805,6.029,0.019,-0.01,0.024,102.0,102.0,101.0,13.4,1505.2,328.8,-0.8,1.8,2470.788,13.28,0.021,117.8
2022-01-16T09:04:03,42.805,6.029,0.027,-0.01,-0.007,102.0,103.0,100.0,13.4,1505.2,328.7,-0.8,1.8,2470.868,13.28,0.028,110.3
2022-01-16T09:07:03,42.805,6.029,0.048,-0.019,-0.003,102.0,101.0,102.0,13.4,1505.2,324.2,-0.8,1.8,2470.807,13.28,0.051,111.6
2022-01-16T09:10:03,42.805,6.029,0.034,-0.044,-0.01,102.0,102.0,101.0,13.3,1505.2,325.8,-0.8,1.8,2470.824,13.28,0.055,142.3
2022-01-16T09:13:03,42.805,6.029,0.038,-0.027,0.018,101.0,102.0,101.0,13.4,1505.2,331.3,-0.8,1.8,2470.81,13.28,0.046,125.4
2022-01-16T09:16:03,42.805,6.029,0.033,-0.013,0.014,102.0,102.0,100.0,13.3,1505.2,326.3,-0.8,1.8,2470.794,13.28,0.035,111.5
2022-01-16T09:19:03,42.805,6.029,0.024,-0.022,0.0,102.0,102.0,100.0,13.4,1505.2,327.2,-0.8,1.8,2470.806,13.28,0.032,132.5
2022-01-16T09:22:03,42.805,6.029,0.037,0.001,0.029,102.0,102.0,100.0,13.4,1505.2,325.9,-0.8,1.8,2470.817,13.28,0.037,88.5
2022-01-16T09:25:03,42.805,6.029,0.02,-0.04,-0.018,101.0,101.0,100.0,13.4,1505.2,331.6,-0.7,1.8,2470.807,13.28,0.044,153.4
2022-01-16T09:28:03,42.805,6.029,0.025,-0.003,0.005,101.0,102.0,101.0,13.4,1505.2,329.1,-0.8,1.8,2470.808,13.28,0.025,96.8
2022-01-16T09:31:03,42.805,6.029,0.035,-0.007,0.016,100.0,100.0,101.0,13.4,1505.2,329.0,-0.7,1.8,2470.8,13.28,0.035,101.3
2022-01-16T09:34:03,42.805,6.029,0.037,-0.017,-0.011,102.0,103.0,100.0,13.3,1505.2,326.3,-0.7,1.8,2470.825,13.28,0.04,114.7
2022-01-16T09:37:03,42.805,6.029,0.009,-0.021,-0.02,102.0,102.0,100.0,13.3,1505.2,324.4,-0.7,1.8,2470.786,13.28,0.022,156.8
2022-01-16T09:40:03,42.805,6.029,0.025,-0.003,0.047,102.0,103.0,100.0,13.4,1505.2,324.2,-0.8,1.8,2470.757,13.28,0.025,96.8
2022-01-16T09:43:03,42.805,6.029,0.014,0.007,0.0,102.0,102.0,101.0,13.4,1505.2,330.4,-0.8,1.8,2470.782,13.28,0.015,63.4
2022-01-16T09:46:03,42.805,6.029,0.031,-0.017,-0.038,101.0,100.0,101.0,13.4,1505.2,329.1,-0.7,1.8,2470.812,13.28,0.035,118.7
2022-01-16T09:49:03,42.805,6.029,0.02,-0.035,-0.035,100.0,104.0,99.0,13.4,1505.2,329.0,-0.8,1.8,2470.79,13.28,0.04,150.3
2022-01-16T09:52:03,42.805,6.029,0.013,0.0,-0.022,103.0,102.0,100.0,13.3,1505.2,327.8,-0.8,1.8,2470.755,13.28,0.013,90.0
2022-01-16T09:55:03,42.805,6.029,0.007,-0.026,-0.013,101.0,103.0,100.0,13.4,1505.2,326.4,-0.7,1.8,2470.748,13.28,0.026,164.9
2022-01-16T09:58:03,42.805,6.029,0.011,-0.002,0.012,101.0,102.0,101.0,13.4,1505.2,327.2,-0.8,1.8,2470.762,13.28,0.011,100.3